GFSSGP_prec_cloud_120.txt.gz
Cloud_Cover
0 0 1 5 1 0 0 0 0 0 0 0 0 0 0 0 0 0 4 21 75 19 99 100 4 17 0 0 0 0 0 0 0 0 1 5 14 1 0 0 0 0 0 19 42 76 99 46 96
0 0 0 0 0 0 0 0 0 0 0 0 0 0 0 0 2 2 7 0 0 0 78 5 12 2 15 0 0 0 0 0 0 0 0 0 1 5 0 0 0 0 1 8 66 79 29 88 98
0 0 0 0 0 0 0 0 0 0 0 0 0 0 0 0 1 15 0 0 0 0 0 1 0 12 100 62 0 0 0 0 0 0 0 1 5 6 1 0 0 0 0 0 4 5 15 16 5
0 0 0 0 0 0 0 0 0 0 0 0 0 0 0 0 0 0 0 0 0 31 88 96 2 11 6 17 99 1 0 0 0 0 0 2 4 5 15 5 6 34 3 31 20 48 5 53 47
5 2 0 0 1 1 0 0 0 0 0 0 0 0 0 0 0 0 0 0 0 0 7 46 100 100 97 100 100 43 0 0 0 0 0 0 5 73 6 51 100 100 100 23 5 5 4 5 5
70 4 5 5 14 5 5 5 5 2 1 0 0 0 0 0 0 0 0 0 0 0 0 0 1 80 82 100 97 4 6 0 0 0 0 0 0 2 62 93 100 100 100 100 42 8 14 61 7
75 95 5 5 5 5 5 5 6 39 5 4 0 0 0 0 4 0 3 0 0 0 0 0 0 0 1 85 100 90 55 9 0 0 0 0 0 0 0 0 20 99 83 70 100 61 17 11 60
100 25 6 20 70 22 5 5 65 52 5 0 0 5 5 5 27 5 1 0 0 0 0 0 0 0 0 0 0 46 100 82 20 0 0 5 0 0 0 0 0 0 2 17 5 36 37 15 10
100 51 32 100 61 87 6 5 5 5 5 5 5 9 17 4 2 5 5 5 5 1 0 0 0 0 1 0 0 0 0 47 94 100 56 7 2 0 0 0 0 0 4 1 1 5 5 5 5
100 100 96 100 92 62 53 8 5 5 5 5 5 5 12 46 13 4 2 0 4 37 11 3 0 0 0 4 4 4 0 0 0 38 100 100 100 88 6 4 3 0 0 0 0 0 1 5 19
100 100 100 100 100 50 18 11 29 5 5 4 5 4 3 5 5 5 5 5 5 5 5 5 5 5 4 0 4 5 5 5 5 5 13 100 100 100 100 56 16 5 1 0 3 9 20 32 35
100 100 100 100 74 58 73 65 47 11 19 5 5 5 0 0 0 0 5 2 0 3 55 54 24 8 9 7 3 1 5 5 4 3 3 5 5 55 100 100 100 29 22 19 22 23 20 46 37
9 73 100 93 100 81 28 25 71 99 77 83 31 5 4 3 4 2 0 3 3 0 0 4 22 15 5 9 5 50 20 5 5 22 11 5 5 5 4 24 86 100 100 100 54 46 41 61 64
7 4 5 19 69 99 96 45 44 46 92 77 100 72 5 5 5 5 3 5 5 5 0 0 0 1 4 5 52 39 38 23 42 47 42 70 46 53 14 5 0 60 100 100 100 68 78 100 100
23 5 5 5 6 37 98 96 35 45 64 80 5 5 5 5 5 50 21 5 5 5 0 0 0 0 0 0 0 1 0 14 10 0 0 4 3 4 1 4 3 0 4 92 41 46 70 100 100
0 3 5 5 3 4 3 5 66 85 90 61 16 6 12 12 5 30 72 14 5 5 5 5 4 0 1 0 0 0 0 14 67 100 92 32 6 23 38 45 44 7 16 22 100 100 71 98 100
0 0 0 4 2 0 1 5 5 5 6 6 8 5 19 31 10 19 9 5 5 5 5 5 4 1 0 0 0 0 2 95 100 100 100 100 100 100 99 91 47 21 47 32 42 88 98 75 34
0 0 0 0 0 0 0 0 0 0 0 2 4 4 5 5 5 5 2 3 3 1 0 0 0 0 0 0 0 56 98 100 100 100 97 100 100 100 100 100 42 98 100 100 99 93 85 100 48
0 0 0 0 0 0 0 0 0 0 0 0 0 0 0 0 0 0 0 0 0 0 0 0 0 0 0 0 70 59 98 100 100 100 100 98 100 100 100 100 100 100 100 100 100 77 99 100 100
5 0 0 0 0 0 0 0 0 0 0 0 0 0 0 0 0 0 0 0 0 0 0 0 0 0 0 0 82 75 48 72 94 99 93 72 86 73 81 99 100 99 100 100 100 71 23 87 100
5 5 5 2 0 0 0 0 0 0 0 0 0 0 0 0 0 0 4 4 5 0 0 0 0 0 0 0 2 1 1 1 57 86 90 99 85 83 97 99 100 97 100 100 100 100 91 93 93
5 3 2 5 5 3 0 0 0 0 0 0 0 0 0 0 4 5 5 4 0 0 0 0 0 0 0 0 0 2 56 6 1 1 16 95 87 34 54 61 58 90 100 99 84 79 100 97 98
5 0 0 0 5 1 5 4 5 0 0 0 0 0 0 0 5 4 0 0 0 0 0 0 0 0 0 1 1 2 0 0 0 5 2 5 5 96 100 100 100 100 99 100 100 80 94 49 98
1 0 0 5 3 2 4 5 0 3 0 0 0 0 0 0 0 0 0 0 0 0 0 0 0 0 0 0 0 4 1 0 5 5 5 5 5 5 5 5 22 26 43 64 92 70 5 93 86
0 2 3 2 5 0 5 17 0 0 0 0 0 0 0 0 0 0 0 0 0 0 0 0 0 0 0 0 0 0 0 0 0 0 0 0 0 1 2 3 2 2 11 57 90 80 68 20 67
5 0 2 0 3 5 5 37 0 0 0 0 0 0 0 0 0 0 0 0 0 0 0 0 0 0 0 0 0 0 0 0 0 0 0 0 0 0 0 0 0 0 0 0 0 0 3 26 95
5 4 4 5 67 83 17 1 0 0 0 0 0 0 0 0 0 0 0 0 0 0 0 0 0 0 0 0 0 0 0 3 4 0 0 0 0 0 0 0 1 5 8 2 0 0 0 0 0
5 4 5 26 2 4 4 4 1 0 0 0 0 0 0 0 0 0 0 0 0 0 0 0 0 0 0 0 0 0 0 0 0 0 0 4 19 54 30 27 5 5 5 5 5 5 5 5 4
3 5 5 5 5 5 4 0 0 0 0 0 0 0 0 0 0 0 0 0 0 0 0 0 0 0 0 0 0 0 0 0 3 4 2 5 37 100 89 54 94 70 49 5 5 10 5 5 5
5 5 3 5 1 5 5 18 0 0 0 0 0 0 0 0 0 0 0 0 0 0 0 0 0 0 0 0 0 0 5 5 3 5 5 5 5 6 36 39 5 7 31 18 5 5 5 5 5

GFSSGP_prec_cloud_123.txt.gz
Cloud_Cover
29 11 13 5 2 5 5 4 5 0 0 0 0 0 0 0 0 4 32 84 99 50 98 35 7 2 0 1 3 0 0 0 0 0 15 88 62 8 4 77 89 21 4 10 32 9 14 58 97
5 2 2 0 0 0 4 5 3 0 0 0 0 0 0 0 2 4 0 0 2 1 29 9 21 0 0 0 0 0 0 0 0 0 0 0 0 5 0 1 2 25 10 5 1 1 5 19 62
5 1 0 0 0 0 0 0 0 0 0 0 0 0 0 0 1 3 0 0 29 22 0 0 0 0 54 92 0 0 0 0 0 0 0 0 0 0 0 2 5 19 3 0 0 0 4 25 5
0 0 0 0 0 0 0 0 0 0 0 0 0 0 0 0 0 0 0 0 75 51 26 64 1 3 6 40 32 93 0 0 0 0 0 0 0 5 5 5 5 5 5 3 2 4 5 9 79
0 0 0 0 0 0 0 0 0 0 0 0 0 0 0 0 0 0 0 0 0 0 0 4 47 100 76 100 96 100 100 0 0 0 0 0 1 15 100 78 21 9 86 100 100 5 5 11 5
3 0 2 3 2 0 0 0 0 0 0 0 0 0 0 0 0 0 0 0 0 0 0 0 0 1 58 99 100 99 41 3 13 0 0 0 0 0 4 14 63 72 40 37 90 100 72 11 10
35 5 5 5 5 4 2 2 4 4 5 2 0 0 0 0 0 0 4 4 2 0 0 0 0 0 0 0 0 58 88 85 31 4 0 0 0 0 0 0 1 2 4 5 5 5 9 28 93
65 16 7 45 11 46 5 5 5 5 5 5 5 4 0 0 0 0 0 9 37 46 16 5 5 5 0 0 0 0 0 6 92 78 27 0 0 0 0 0 2 5 5 2 0 3 5 4 4
100 43 100 100 99 100 36 8 5 5 5 5 5 5 5 4 5 2 0 0 0 7 26 50 32 6 5 5 5 0 0 0 0 0 69 100 83 44 2 0 0 0 0 0 0 0 0 4 38
100 95 100 100 100 100 100 98 11 5 5 5 5 5 5 5 4 2 3 5 4 1 3 1 0 0 0 1 4 4 0 0 0 0 0 4 10 99 100 100 63 1 0 0 0 0 0 21 22
100 100 100 100 100 100 93 64 34 5 40 32 45 5 5 5 5 5 5 2 0 0 1 1 5 1 3 4 2 1 0 0 0 0 0 0 0 0 0 49 100 100 50 0 0 1 0 1 1
100 100 100 100 100 100 100 99 31 10 22 6 7 5 5 5 5 5 5 5 5 4 5 5 2 3 0 0 0 1 3 5 2 5 5 5 5 5 1 0 5 39 100 100 27 17 19 37 13
100 100 100 100 100 100 100 100 100 68 79 57 72 16 5 11 14 56 43 5 5 5 5 5 5 5 4 4 2 0 0 0 0 0 1 5 5 5 5 5 5 5 5 29 98 100 100 77 53
100 100 97 77 97 100 100 100 100 100 100 59 10 16 21 46 37 14 30 28 5 5 5 5 5 5 0 0 0 0 0 11 26 38 25 0 0 0 0 0 0 0 0 1 10 79 100 100 100
100 100 97 9 42 80 96 100 100 100 100 100 65 64 54 74 65 45 5 5 5 5 5 5 5 3 5 3 5 5 4 76 100 100 100 82 52 35 9 8 0 2 12 23 42 68 30 99 100
100 100 100 99 31 10 5 30 82 91 16 47 94 100 99 92 43 14 13 5 5 5 5 4 4 4 0 0 0 0 42 98 100 100 100 100 100 100 100 100 100 42 37 46 56 93 84 61 98
100 100 100 100 99 29 5 5 3 12 30 16 14 83 98 89 64 62 19 5 5 4 2 0 0 0 0 0 0 7 83 93 98 52 96 100 100 100 100 100 73 4 11 90 100 100 100 100 84
100 100 100 100 55 21 38 17 5 4 2 5 3 5 12 52 35 22 5 2 0 0 0 0 0 0 0 0 0 0 43 71 62 60 90 44 100 100 100 86 62 77 61 30 92 96 100 100 85
5 6 8 5 5 5 5 4 0 0 0 0 0 0 3 0 0 0 0 0 0 0 0 0 0 0 0 0 33 32 85 84 56 66 10 0 13 47 96 90 87 99 58 88 66 69 100 100 93
0 1 4 4 4 1 0 0 0 0 0 0 0 0 0 0 0 0 0 0 0 0 0 0 0 0 0 0 42 93 100 97 97 38 17 0 0 0 0 18 42 35 94 70 42 72 98 83 70
0 0 0 0 0 0 0 0 0 0 0 0 0 0 0 0 0 0 0 0 0 0 0 0 0 0 0 0 0 14 24 0 0 2 5 0 0 0 0 7 4 21 63 86 52 39 66 100 93
0 0 0 0 0 0 0 0 0 0 0 0 0 0 0 0 0 0 0 0 0 0 0 0 0 0 0 0 0 0 0 0 0 0 0 0 0 0 0 1 5 5 5 9 77 39 8 83 100
3 0 0 0 2 0 1 0 5 5 4 0 0 0 0 0 0 0 0 0 0 0 0 0 0 0 0 0 0 0 0 0 0 0 0 0 0 0 0 2 0 5 5 5 5 5 50 5 5
0 0 0 0 1 0 2 1 2 5 5 5 2 0 2 0 0 0 0 0 0 0 0 0 0 0 0 0 0 0 0 0 0 0 0 0 0 0 0 0 0 0 0 0 2 3 3 5 5
0 0 0 0 1 0 5 15 0 0 3 0 0 0 0 0 0 0 0 0 0 0 0 0 0 0 0 0 0 0 0 0 0 0 0 0 0 0 0 0 0 0 0 0 0 0 0 0 0
1 0 0 0 0 2 5 19 0 0 0 0 0 0 0 0 0 0 0 0 0 0 0 0 0 0 0 0 0 0 0 0 0 0 0 0 0 0 0 3 0 1 0 2 5 5 2 4 5
4 4 1 5 55 16 1 0 0 0 0 0 0 0 0 0 0 0 0 0 0 0 0 0 0 0 0 0 0 0 0 0 0 0 0 0 0 0 0 0 5 5 5 5 5 14 5 5 2
0 1 2 5 0 1 1 0 1 0 0 0 0 0 0 0 0 0 0 0 0 0 0 0 0 0 0 0 0 0 0 0 0 0 0 0 0 0 0 2 5 5 5 5 5 5 5 4 3
3 5 4 4 4 4 1 0 0 0 0 0 0 0 0 0 0 0 0 0 0 0 0 0 0 0 0 0 0 0 0 0 0 0 1 0 2 1 3 5 5 5 5 5 4 0 0 2 0
5 1 2 0 2 5 5 9 0 0 0 0 0 0 0 0 0 0 0 0 0 0 0 0 0 0 0 0 3 5 5 5 5 5 5 5 16 49 93 62 86 99 11 5 5 5 5 4 5

GFSSGP_prec_cloud_126.txt.gz
Cloud_Cover
100 69 10 96 8 40 14 5 5 1 1 5 0 0 0 0 0 23 38 42 88 83 34 44 23 0 11 1 0 0 5 3 0 0 0 0 4 5 41 5 15 5 5 100 100 83 13 5 8
100 91 96 78 54 82 41 5 5 5 5 4 5 0 0 0 0 8 38 33 25 11 0 0 1 10 0 0 0 0 0 0 0 0 0 0 0 0 0 0 3 4 2 2 4 5 5 24 5
100 100 100 95 100 83 42 5 0 2 2 5 5 0 0 0 0 0 0 0 0 0 0 0 0 0 11 50 0 0 0 0 0 0 1 0 0 5 16 6 0 4 5 23 19 26 5 3 5
1 6 97 100 100 88 33 5 0 0 0 0 0 0 0 0 0 0 0 0 0 4 0 0 0 0 29 14 19 83 74 0 0 0 0 0 0 0 33 23 6 5 5 5 5 5 16 5 5
6 0 2 66 99 42 5 4 0 0 0 0 0 0 0 0 0 0 0 0 0 0 0 0 0 20 27 1 41 70 97 99 6 0 0 0 0 0 0 13 89 96 47 6 10 99 100 100 21
11 5 3 0 0 0 0 0 0 0 0 0 0 0 0 0 0 0 0 0 0 0 0 0 2 0 0 0 0 16 92 78 3 40 26 0 0 0 0 0 0 1 5 4 5 5 11 94 99
100 17 5 5 0 0 0 0 0 0 0 0 0 0 0 0 0 0 0 0 0 0 0 4 3 5 5 5 5 5 2 0 2 57 9 0 0 0 0 0 0 0 0 0 0 0 0 0 17
93 98 31 5 5 4 0 0 0 0 0 0 0 0 0 0 0 0 0 5 0 0 0 0 0 5 5 5 5 5 5 5 5 5 23 46 10 1 3 0 12 0 4 5 1 0 0 4 5
100 98 98 18 19 5 5 3 0 2 1 1 4 1 1 0 3 5 1 0 0 1 0 0 0 0 0 0 0 0 1 0 1 4 5 5 5 28 22 65 15 3 1 1 0 0 0 0 0
100 100 100 96 82 80 98 65 15 5 5 5 5 5 5 2 4 2 1 4 5 0 0 0 0 0 0 0 0 0 0 0 0 0 0 0 3 4 3 4 49 98 66 1 0 0 2 30 1
100 100 100 100 100 98 100 98 99 97 90 12 5 5 5 5 5 5 5 5 5 4 4 0 0 0 0 0 0 0 0 0 0 0 0 0 0 0 0 4 0 2 0 30 71 86 45 58 41
100 100 100 100 100 100 100 100 100 100 100 100 87 58 44 7 16 23 13 6 6 5 5 5 5 5 3 0 3 5 5 5 5 5 2 3 0 0 0 0 0 0 0 0 4 33 97 36 63
100 100 100 100 100 100 100 100 100 100 100 100 92 46 10 5 5 5 14 55 44 14 7 16 10 5 5 5 0 0 0 1 2 0 0 0 0 0 0 0 0 0 0 0 0 2 4 15 75
100 100 100 100 100 100 100 100 100 100 100 100 100 75 31 6 7 5 5 5 27 27 35 9 5 6 5 2 0 0 0 0 0 15 20 0 1 0 0 0 0 0 0 0 0 0 22 44 39
100 100 100 100 100 100 100 100 100 100 100 100 100 100 100 96 98 82 93 50 50 38 7 5 5 5 3 5 2 0 6 12 52 100 100 100 80 23 38 30 0 0 0 0 0 0 3 79 69
100 100 100 100 100 100 100 100 100 100 100 99 99 96 100 100 100 100 52 14 22 31 20 37 12 5 1 3 0 14 34 94 100 36 100 100 84 89 100 94 3 4 0 0 1 0 45 80 70
79 100 100 100 100 100 100 100 99 91 77 72 72 66 56 77 91 93 68 60 20 34 5 5 5 4 1 0 0 29 69 100 81 12 23 48 53 68 76 86 30 52 30 21 24 27 71 31 100
61 100 100 100 100 100 73 54 71 81 96 82 53 84 51 36 41 28 54 12 4 5 6 1 0 0 0 0 0 28 94 99 94 39 19 39 33 36 64 100 94 100 39 60 56 58 52 20 29
0 48 100 100 100 100 100 100 82 83 50 26 52 6 5 5 5 1 0 0 0 0 0 0 0 0 0 0 0 36 100 100 89 65 0 0 0 0 15 75 99 92 100 72 58 32 93 100 64
0 1 34 100 100 100 100 80 61 33 5 5 14 5 7 0 0 0 0 0 0 0 0 0 0 0 0 0 2 65 100 100 84 2 0 0 0 0 0 0 1 0 47 55 67 75 66 70 85
0 0 6 52 100 100 89 5 14 5 5 3 1 0 0 0 0 0 0 0 0 0 0 0 0 0 0 0 0 48 94 15 3 0 0 0 0 0 0 0 0 0 0 0 0 0 3 76 63
0 0 0 5 24 43 32 5 5 5 2 0 0 0 0 0 0 0 0 0 0 0 0 0 0 0 0 0 0 0 0 0 0 0 0 0 0 0 0 0 0 0 0 0 0 0 0 5 5
0 0 0 0 0 0 0 0 0 0 0 0 0 0 0 0 0 0 0 0 0 0 0 0 0 0 0 0 0 0 0 0 0 0 0 0 0 0 0 0 0 0 0 0 0 0 0 0 4
0 0 0 0 0 0 0 0 0 0 0 0 0 0 0 0 0 0 0 0 0 0 0 0 0 0 0 0 0 0 0 0 0 0 0 0 0 0 0 0 0 0 0 0 0 0 0 0 0
0 0 24 0 38 0 3 0 0 5 4 0 0 0 0 0 0 0 0 0 0 0 0 0 0 0 0 0 0 0 0 0 0 0 0 0 0 0 0 0 0 0 0 1 2 2 5 1 0
0 0 2 2 0 0 4 0 0 0 0 0 0 0 0 0 0 0 0 0 0 0 0 0 0 0 0 0 0 0 0 0 0 0 0 0 0 0 0 4 0 0 0 0 0 0 0 0 5
0 0 0 0 4 0 0 0 0 0 0 0 0 0 0 0 0 0 0 0 0 0 0 0 0 0 0 0 0 0 0 0 0 0 3 0 0 0 0 0 0 0 0 0 0 0 0 5 5
2 0 0 2 0 0 0 0 0 0 0 0 0 0 0 0 0 0 0 0 0 0 0 0 0 0 0 0 0 0 0 0 0 0 0 1 3 10 30 34 35 35 71 98 76 51 53 14 19
4 3 0 0 0 0 0 0 0 0 0 0 0 0 0 0 0 0 0 0 0 0 0 0 0 0 0 0 0 1 2 4 3 4 5 46 72 96 96 99 38 36 49 55 85 97 86 47 25
0 2 0 0 0 1 0 0 0 0 0 0 0 0 0 0 0 0 0 0 0 0 0 0 0 5 5 5 7 75 97 96 99 100 100 100 100 100 100 79 18 7 5 5 64 26 87 71 26

GFSSGP_prec_cloud_129.txt.gz
Cloud_Cover
98 40 91 98 100 99 73 5 5 6 5 5 5 4 0 0 0 27 12 0 0 0 45 39 25 89 0 0 0 0 0 0 4 0 0 0 0 0 0 3 63 72 84 100 27 5 30 100 96
100 100 100 100 100 99 30 5 5 9 5 5 4 1 1 2 0 0 6 0 0 0 0 0 0 24 0 0 0 0 0 0 0 0 0 0 0 0 0 0 0 0 3 24 41 12 46 5 11
100 100 100 100 100 100 100 75 100 71 8 5 5 3 4 5 0 0 0 0 0 0 0 0 0 0 12 74 24 1 2 0 0 0 0 0 0 0 5 8 36 16 4 4 4 5 5 5 5
100 100 100 100 100 100 100 100 100 79 37 7 5 2 4 5 0 0 0 0 0 0 0 0 0 0 3 0 1 50 54 43 6 0 0 0 0 0 0 0 60 35 67 47 5 5 5 5 8
17 4 32 73 100 100 100 100 100 100 76 24 6 5 0 0 0 0 0 0 0 0 0 0 0 0 0 0 0 0 0 56 100 62 21 15 0 0 0 0 0 0 1 4 22 32 5 5 75
5 4 4 4 5 12 8 9 20 40 6 5 5 1 0 0 0 0 0 0 0 0 0 0 0 0 0 0 2 4 5 5 19 9 23 7 1 0 0 0 0 0 0 0 0 0 1 0 0
5 38 30 5 6 4 2 1 1 9 5 3 0 0 0 0 0 0 0 0 0 0 0 0 0 0 0 0 0 5 5 5 5 5 5 5 5 1 0 0 0 0 0 0 0 0 0 0 0
51 8 98 100 43 5 6 4 0 0 0 0 0 0 0 0 0 0 0 0 0 0 0 0 0 0 0 0 0 0 0 0 0 0 0 0 0 0 4 5 33 7 5 5 5 5 5 2 0
100 90 78 48 100 100 13 7 5 0 0 0 0 0 0 0 0 3 4 1 0 5 5 4 0 0 0 0 0 0 0 0 0 0 0 0 0 0 0 40 14 18 3 5 5 5 5 4 3
100 100 100 96 27 100 99 5 7 8 5 2 5 0 3 5 5 5 5 5 4 5 5 5 5 0 1 0 0 0 0 0 0 0 0 0 0 0 0 0 0 0 0 0 0 0 0 19 2
100 100 81 81 100 32 100 68 15 86 77 12 5 5 5 5 5 16 33 5 5 5 6 11 8 5 5 5 5 5 0 0 1 0 0 0 0 0 0 0 0 0 0 0 2 18 17 18 38
100 100 100 100 99 100 100 100 19 50 86 33 44 40 6 8 31 6 59 53 10 25 8 5 27 5 5 5 5 5 5 2 0 0 0 0 0 0 0 0 0 0 0 0 0 0 0 0 15
99 100 100 100 90 100 100 100 100 73 95 94 96 99 83 90 100 100 82 52 25 5 5 5 5 5 5 5 5 5 5 0 0 0 0 0 0 0 0 0 0 0 0 0 0 0 0 0 2
1 100 100 100 100 90 87 100 100 100 100 99 99 100 100 100 100 100 89 17 5 16 5 24 26 16 16 70 78 6 5 0 0 1 49 16 2 5 0 0 0 0 0 0 0 1 0 0 3
75 2 100 100 100 99 99 100 100 100 100 100 100 98 100 100 62 47 40 95 100 100 100 100 99 12 10 6 5 5 17 9 10 5 98 63 4 4 92 6 0 0 0 1 0 4 8 7 0
16 83 38 100 100 100 100 100 100 100 100 100 100 100 100 100 100 100 100 100 100 100 99 86 70 40 5 5 5 6 24 76 57 25 4 23 28 25 21 26 32 15 21 16 10 9 9 19 9
0 88 72 72 100 100 100 100 100 100 100 100 100 100 100 100 100 100 51 50 10 25 39 31 11 6 5 0 0 4 62 100 62 20 27 28 32 31 46 86 38 24 25 24 94 84 71 64 6
0 1 35 54 91 100 100 100 100 100 100 100 100 100 100 96 10 6 10 26 42 50 27 36 5 0 0 0 0 22 84 67 100 81 21 20 17 22 44 79 100 96 55 36 11 16 40 99 81
0 0 0 24 56 94 100 100 100 100 100 100 100 100 16 5 5 6 21 59 59 42 15 0 0 0 0 0 0 27 87 100 99 90 0 0 0 0 0 0 8 7 31 16 20 35 99 95 100
0 0 0 0 2 8 72 97 100 100 100 80 5 5 5 5 16 46 6 5 5 1 0 0 0 0 0 0 0 22 81 100 58 0 0 0 0 0 0 0 0 0 0 0 0 0 1 53 31
0 0 0 14 0 8 90 99 89 95 87 10 5 5 5 4 1 0 0 0 0 0 0 0 0 0 0 0 0 64 94 21 0 0 0 0 0 0 0 0 0 0 0 0 0 0 0 0 0
0 0 0 0 0 0 0 22 63 30 6 5 5 0 0 0 0 0 0 0 0 0 0 0 0 0 0 0 0 2 8 3 0 0 0 0 0 0 0 0 0 0 0 0 0 0 0 0 0
5 0 0 0 0 0 0 0 4 5 5 3 0 0 0 0 0 0 0 0 0 0 0 0 0 0 0 0 0 0 0 0 0 0 0 0 0 0 0 0 0 0 0 0 0 0 0 0 0
4 5 3 0 0 0 0 0 0 0 0 0 0 0 0 0 0 0 0 0 0 0 0 0 0 0 0 0 0 0 0 0 0 0 0 0 0 0 0 0 0 0 0 0 0 0 0 0 1
3 0 20 3 53 0 0 0 0 0 0 0 0 0 0 0 0 0 0 0 0 0 0 0 0 0 0 0 0 0 0 0 0 0 0 0 0 0 0 0 0 0 3 5 3 4 51 88 93
0 0 5 42 0 0 0 0 0 0 0 0 0 0 0 0 0 0 0 0 0 0 0 0 0 0 0 0 0 0 0 0 0 0 0 0 0 0 0 0 4 94 100 36 10 49 65 40 40
0 0 0 0 0 0 0 0 0 0 0 0 0 0 0 0 0 0 0 0 0 0 0 0 0 0 0 0 0 0 0 0 0 0 0 0 2 16 31 63 99 100 96 18 5 5 5 2 4
0 0 0 0 2 0 0 0 0 0 0 0 0 0 0 0 0 0 0 0 0 0 0 0 0 0 0 0 0 2 2 3 5 14 62 5 5 5 48 99 82 95 46 5 5 5 5 5 4
0 0 0 0 0 0 0 0 0 0 0 0 0 0 0 0 0 0 0 0 0 0 0 0 0 0 0 3 4 21 5 5 3 5 55 100 100 100 100 100 100 100 58 48 6 22 29 97 89
0 0 0 0 0 0 0 0 0 0 0 0 0 0 0 0 0 0 0 0 0 0 0 3 5 7 15 30 24 9 65 100 99 20 84 100 37 97 100 82 90 39 100 100 100 65 100 100 100

GFSSGP_prec_cloud_132.txt.gz
Cloud_Cover
100 100 100 100 57 100 75 100 100 100 30 5 5 2 1 0 0 29 11 18 12 96 2 0 11 0 80 0 0 0 0 0 0 0 0 0 0 0 0 0 0 4 5 44 58 39 88 92 27
100 99 100 100 100 100 100 99 81 88 7 5 5 0 0 5 0 0 3 0 0 0 0 0 0 26 37 24 2 0 0 0 0 0 0 0 0 0 1 0 0 3 5 1 0 0 0 2 5
97 100 99 100 100 100 58 100 100 87 54 5 4 5 4 5 4 1 0 0 0 0 0 0 0 0 0 2 39 44 24 18 4 0 0 0 0 0 2 0 0 4 5 16 5 5 3 0 3
100 99 61 100 100 53 100 100 100 100 100 62 27 6 14 5 7 5 0 0 0 0 0 0 0 0 0 0 0 0 1 28 35 4 1 0 0 0 0 0 0 0 4 5 5 5 5 5 5
1 73 100 100 100 100 100 100 100 100 100 100 100 100 89 50 5 4 0 0 0 0 0 0 0 0 0 0 0 0 0 0 1 86 86 27 4 0 0 0 0 0 0 0 0 0 0 0 3
3 1 3 80 100 100 100 100 100 100 100 100 100 97 12 5 5 3 0 0 0 0 0 0 0 0 0 0 0 0 0 0 0 0 0 0 0 0 0 0 0 0 0 0 0 0 0 0 0
42 1 4 89 0 10 20 45 31 29 96 100 29 71 52 6 5 5 0 0 0 0 0 0 0 0 0 0 0 0 0 0 0 0 0 0 0 0 0 0 0 0 0 0 0 0 0 0 0
82 5 4 5 2 3 0 0 0 0 0 0 11 4 2 2 1 0 0 0 0 0 0 0 0 0 0 0 0 0 0 0 0 0 0 0 0 0 0 0 0 13 21 0 0 0 0 0 0
44 100 99 49 21 10 23 1 0 2 0 0 4 1 0 0 0 0 0 0 0 0 0 0 0 0 0 0 0 0 0 0 0 0 0 0 0 0 0 0 0 0 0 0 0 0 0 0 0
76 100 98 18 27 9 100 81 37 1 3 5 47 22 5 5 1 0 0 1 5 2 0 3 5 3 5 5 5 5 5 0 0 2 0 0 0 0 0 0 0 0 0 0 0 0 4 0 0
48 98 27 42 99 100 6 39 100 100 58 15 12 22 91 33 5 5 5 5 5 5 5 5 8 5 5 8 20 5 5 0 0 0 0 0 0 0 0 0 0 0 0 0 0 35 8 5 43
5 58 83 99 100 100 63 100 69 43 100 100 41 5 75 46 47 26 11 5 5 5 5 5 17 49 33 11 5 5 4 3 0 1 5 5 4 0 0 0 0 0 0 0 0 0 0 10 6
22 78 100 100 100 100 100 100 100 80 80 100 100 86 11 76 57 25 84 62 80 83 57 85 25 35 9 5 44 100 100 92 5 5 5 0 0 0 0 0 0 0 0 0 0 0 0 0 0
53 86 100 100 100 100 100 100 7 100 100 100 100 100 100 51 89 100 100 100 94 63 11 5 4 16 99 100 100 100 100 8 5 1 0 0 0 0 0 0 0 0 0 0 0 0 0 0 0
60 22 100 100 97 100 100 96 99 100 100 100 100 100 100 100 100 98 64 51 77 99 11 5 93 100 100 100 100 15 5 4 5 5 5 0 0 0 0 0 19 0 0 0 0 0 0 0 0
17 18 94 96 97 100 100 100 100 100 100 100 100 100 100 58 87 60 85 22 26 19 63 100 100 97 47 7 5 5 6 5 6 13 21 2 20 0 38 0 0 0 0 0 6 62 1 57 34
5 2 3 5 92 100 100 100 100 100 100 100 100 100 100 98 100 96 100 99 41 77 100 93 47 5 6 9 5 6 30 5 18 71 0 4 9 11 18 44 52 3 0 0 5 0 38 2 6
5 5 0 0 10 20 100 100 100 100 100 100 100 100 100 100 100 99 100 100 100 100 100 22 5 10 5 5 5 33 6 0 100 97 0 0 0 0 0 2 14 0 5 0 0 0 0 36 0
0 0 0 0 2 5 5 100 100 100 100 100 100 100 100 100 100 100 100 100 100 88 6 5 5 11 5 2 0 2 0 92 98 100 0 0 0 0 0 0 0 0 0 0 0 0 0 0 0
0 0 0 0 0 0 72 23 100 100 100 100 100 100 100 100 100 100 100 99 6 5 5 3 1 0 0 0 0 2 33 96 74 0 0 0 0 0 0 0 0 0 0 0 0 0 0 0 0
0 0 0 0 0 0 5 96 100 86 100 100 100 100 100 100 100 92 21 5 5 1 0 0 0 0 0 0 0 59 54 0 0 0 0 0 0 0 0 0 0 0 0 0 0 0 0 0 0
0 0 0 0 0 0 0 8 2 18 5 72 100 100 100 100 14 2 2 0 0 0 0 0 0 0 0 0 0 0 24 40 0 0 0 0 0 0 0 0 0 0 0 0 0 0 2 4 4
0 0 0 0 0 0 0 0 0 0 0 1 5 5 2 0 0 0 0 0 0 0 0 0 0 0 0 0 0 0 0 0 0 0 0 0 0 0 0 0 0 0 4 7 83 46 5 5 8
3 5 0 0 0 0 0 0 0 0 0 0 0 0 0 0 0 0 0 0 0 0 0 0 0 0 0 0 0 0 0 0 0 0 0 0 0 0 0 0 1 4 9 30 11 15 5 5 4
4 0 68 2 0 4 0 0 0 0 0 0 0 0 0 0 0 0 0 0 0 0 0 0 0 0 0 0 0 0 0 0 0 0 0 0 0 0 5 5 7 16 11 45 9 37 19 5 5
5 6 7 0 5 0 0 1 0 0 0 0 0 0 0 0 0 0 0 0 0 0 0 0 0 0 0 0 0 0 0 0 0 0 0 0 0 0 5 8 5 5 6 65 90 74 12 37 27
0 5 4 0 0 0 1 0 0 0 0 0 0 0 0 0 0 0 0 0 0 0 0 0 0 0 0 0 0 0 0 0 0 2 0 1 18 5 8 100 42 91 5 91 57 19 37 6 38
0 0 1 0 1 0 0 0 0 0 0 0 0 0 0 0 0 0 0 0 0 0 0 0 0 0 0 0 0 3 34 7 5 5 11 5 70 100 100 84 100 100 100 100 100 100 96 5 76
0 0 0 0 0 1 0 0 0 0 0 0 0 0 0 0 0 0 0 0 0 0 0 0 0 1 7 52 8 3 0 3 5 5 61 28 16 13 5 9 94 80 62 19 32 5 41 94 89
0 0 0 0 0 0 0 0 0 0 0 0 0 0 0 0 0 0 0 0 0 0 0 0 3 5 43 5 0 1 5 5 5 5 18 19 46 98 99 96 46 24 26 70 98 70 94 100 80